Preview of NWS' New Version of Forecast
This preview is not operational and should not be used for support decisions.

Regional Weather Roundup (RWR)

Issued by National Weather Service (NWS)

                            
000
ASUS43 KLSX 220257
RWRMO 

WEATHER SUMMARY FOR MISSOURI
NATIONAL WEATHER SERVICE SPRINGFIELD MO
1000 PM CDT SAT SEP 21 2019

NOTE: "FAIR" INDICATES FEW OR NO CLOUDS BELOW 12,000 FEET WITH NO
       SIGNIFICANT WEATHER AND/OR OBSTRUCTIONS TO VISIBILITY.
       CURRENT SKY AND/OR WEATHER CONDITIONS ARE NOT AVAILABLE FOR
       CHILLICOTHE AND FARMINGTON.

MOZ001>031-035>038-043-044-053-054-220400-
...NORTHERN AND WESTERN MISSOURI...
  
CITY           SKY/WX    TMP DP  RH WIND       PRES   REMARKS
KANSAS CTY INT MOCLDY    74  70  87 S12       29.93R                  
LEE'S SUMMIT   CLOUDY    76  68  76 S15G22    29.94R                  
ST JOSEPH      MOCLDY    75  70  84 S10       29.91R                  
CHILLICOTHE      N/A     73  70  90 S5        29.96R                  
     
$$
MOZ066>068-077>081-088>096-101>105-220400-
...SOUTHWEST MISSOURI...
  
CITY           SKY/WX    TMP DP  RH WIND       PRES   REMARKS
SPRINGFIELD    CLEAR     76  66  71 S12       30.02F                  
JOPLIN         CLEAR     77  68  73 S13       29.99F                  
               
$$
MOZ032>034-039>042-045>050-055>058-069>072-220400-
...CENTRAL MISSOURI...  
  
CITY           SKY/WX    TMP DP  RH WIND       PRES   REMARKS
COLUMBIA       NOT AVBL                                               
JEFFERSON CITY CLEAR     74  71  91 SE7       29.99S                  
ROLLA          CLEAR     76  65  68 S18G25    30.05R                  
SEDALIA        MOCLDY    73  69  87 S13       29.97F                  
WARRENSBURG    PTCLDY    72  68  88 S8        29.94F                  
               
$$
MOZ051-052-059>065-220400-
...EAST CENTRAL MISSOURI...
  
CITY           SKY/WX    TMP DP  RH WIND       PRES   REMARKS
ST LOUIS INTL  MOCLDY    79  66  64 S9        30.05S                  
                   
$$
MOZ072>076-082>087-097>100-106>115-220400-
...SOUTH CENTRAL AND SOUTHEAST MISSOURI...
  
CITY           SKY/WX    TMP DP  RH WIND       PRES   REMARKS
CAPE GIRARDEAU FAIR      75  60  59 S7        30.09F                  
POPLAR BLUFF   FAIR      75  62  64 S6        30.09S                  
WEST PLAINS    CLEAR     74  64  71 S7        30.10F                  
                                       
$$